CEB822 RPUV-RPLL

Flight info

Callsign CEB822
Flight time 0h 43m
Altitude 28000
Route RPUV/24 DCT NGA W9 AKDAP AKDAP3R RPLL/06
Aircraft A320/M-SDE3FGHIRWY/LB1

Departure

Time 2026-04-24 05:36
Airport Virac Airport (RPUV)

Arrival

Time 2026-04-24 06:19
Airport Ninoy Aquino International Airport (RPLL)
Time Latitude Longitude Altitude Speed Heading
2026-04-24 05:27 13.57944 124.21172 162 ft 0 kts 177°
2026-04-24 05:28 13.57945 124.21172 162 ft 0 kts 177°
2026-04-24 05:29 13.57944 124.21172 162 ft 0 kts 177°
2026-04-24 05:29 13.57945 124.21172 162 ft 0 kts 177°
2026-04-24 05:29 13.57944 124.21172 162 ft 0 kts 177°
2026-04-24 05:32 13.57943 124.21171 162 ft 0 kts 209°
2026-04-24 05:32 13.57941 124.21165 162 ft 1 kts 257°
2026-04-24 05:33 13.57944 124.21146 162 ft 3 kts 293°
2026-04-24 05:33 13.57967 124.21141 162 ft 4 kts 32°
2026-04-24 05:33 13.57988 124.21169 162 ft 5 kts 59°
2026-04-24 05:34 13.58010 124.21212 162 ft 2 kts 56°
2026-04-24 05:34 13.58031 124.21220 162 ft 4 kts 355°
2026-04-24 05:34 13.58064 124.21204 162 ft 5 kts 330°
2026-04-24 05:34 13.58081 124.21191 162 ft 2 kts 297°
2026-04-24 05:35 13.58077 124.21175 162 ft 3 kts 241°
2026-04-24 05:35 13.58075 124.21172 162 ft 0 kts 240°
2026-04-24 05:35 13.58061 124.21146 162 ft 27 kts 240°
2026-04-24 05:36 13.57827 124.20722 162 ft 107 kts 240°
2026-04-24 05:36 13.57353 124.19868 243 ft 158 kts 241°
2026-04-24 05:36 13.56811 124.18895 913 ft 155 kts 240°
2026-04-24 05:36 13.56280 124.17928 1496 ft 163 kts 242°
2026-04-24 05:37 13.55707 124.16888 1919 ft 175 kts 242°
2026-04-24 05:37 13.55073 124.15740 2199 ft 192 kts 242°
2026-04-24 05:37 13.54504 124.14442 2525 ft 204 kts 262°
2026-04-24 05:37 13.54474 124.12953 2883 ft 216 kts 277°
2026-04-24 05:38 13.54636 124.11319 3149 ft 239 kts 278°
2026-04-24 05:38 13.54812 124.09513 3570 ft 256 kts 277°
2026-04-24 05:38 13.54959 124.07633 3970 ft 274 kts 276°
2026-04-24 05:38 13.55078 124.05650 4685 ft 278 kts 276°
2026-04-24 05:39 13.55179 124.03686 5504 ft 278 kts 275°
2026-04-24 05:39 13.55272 124.01714 6249 ft 280 kts 275°
2026-04-24 05:39 13.55361 123.99701 7043 ft 282 kts 275°
2026-04-24 05:39 13.55448 123.97714 7850 ft 282 kts 275°
2026-04-24 05:40 13.55533 123.95689 8661 ft 283 kts 275°
2026-04-24 05:40 13.55620 123.93655 9452 ft 284 kts 274°
2026-04-24 05:40 13.55703 123.91642 10220 ft 286 kts 274°
2026-04-24 05:40 13.55789 123.89564 10732 ft 297 kts 274°
2026-04-24 05:41 13.55880 123.87383 11042 ft 314 kts 274°
2026-04-24 05:41 13.55974 123.85097 11479 ft 326 kts 274°
2026-04-24 05:41 13.56071 123.82733 11967 ft 335 kts 273°
2026-04-24 05:41 13.56168 123.80344 12598 ft 338 kts 273°
2026-04-24 05:42 13.56265 123.77938 13246 ft 341 kts 273°
2026-04-24 05:42 13.56363 123.75491 13869 ft 344 kts 273°
2026-04-24 05:42 13.56461 123.73020 14475 ft 347 kts 272°
2026-04-24 05:42 13.56548 123.70825 14999 ft 350 kts 272°
2026-04-24 05:43 13.56657 123.68082 15631 ft 354 kts 272°
2026-04-24 05:43 13.56757 123.65546 16200 ft 357 kts 272°
2026-04-24 05:43 13.56857 123.62990 16757 ft 360 kts 272°
2026-04-24 05:43 13.56959 123.60399 17304 ft 364 kts 272°
2026-04-24 05:44 13.57061 123.57760 17848 ft 367 kts 272°
2026-04-24 05:44 13.57164 123.55129 18369 ft 370 kts 272°
2026-04-24 05:44 13.57266 123.52492 18875 ft 373 kts 271°
2026-04-24 05:44 13.57370 123.49788 19378 ft 377 kts 271°
2026-04-24 05:45 13.57474 123.47096 19870 ft 380 kts 271°
2026-04-24 05:45 13.57579 123.44353 20357 ft 383 kts 271°
2026-04-24 05:45 13.57684 123.41589 20831 ft 386 kts 271°
2026-04-24 05:45 13.57787 123.38841 21287 ft 389 kts 271°
2026-04-24 05:46 13.57893 123.36049 21735 ft 393 kts 271°
2026-04-24 05:46 13.58000 123.33221 22173 ft 396 kts 271°
2026-04-24 05:46 13.58120 123.30383 22662 ft 397 kts 273°
2026-04-24 05:46 13.58525 123.27530 23249 ft 397 kts 281°
2026-04-24 05:47 13.59331 123.24797 23815 ft 398 kts 290°
2026-04-24 05:47 13.60470 123.22186 24358 ft 398 kts 294°
2026-04-24 05:47 13.61703 123.19610 24888 ft 398 kts 295°
2026-04-24 05:47 13.62946 123.17046 25405 ft 398 kts 295°
2026-04-24 05:48 13.64175 123.14500 25916 ft 397 kts 295°
2026-04-24 05:48 13.65387 123.11980 26403 ft 397 kts 295°
2026-04-24 05:48 13.66607 123.09433 26822 ft 398 kts 295°
2026-04-24 05:48 13.67836 123.06863 27198 ft 401 kts 295°
2026-04-24 05:49 13.69078 123.04262 27575 ft 403 kts 295°
2026-04-24 05:49 13.70306 123.01688 27895 ft 406 kts 295°
2026-04-24 05:49 13.71572 122.99031 27936 ft 407 kts 295°
2026-04-24 05:49 13.72827 122.96400 27938 ft 408 kts 295°
2026-04-24 05:50 13.74079 122.93770 27937 ft 408 kts 295°
2026-04-24 05:50 13.75333 122.91137 27935 ft 408 kts 295°
2026-04-24 05:50 13.76572 122.88532 27932 ft 408 kts 295°
2026-04-24 05:50 13.77812 122.85924 27928 ft 409 kts 295°
2026-04-24 05:51 13.79063 122.83293 27925 ft 409 kts 295°
2026-04-24 05:51 13.80304 122.80682 27923 ft 409 kts 295°
2026-04-24 05:51 13.81554 122.78053 27922 ft 409 kts 295°
2026-04-24 05:51 13.82822 122.75389 27921 ft 409 kts 295°
2026-04-24 05:52 13.84068 122.72772 27920 ft 409 kts 295°
2026-04-24 05:52 13.85314 122.70153 27920 ft 409 kts 295°
2026-04-24 05:52 13.86574 122.67502 27920 ft 409 kts 295°
2026-04-24 05:52 13.87841 122.64833 27920 ft 409 kts 295°
2026-04-24 05:53 13.89096 122.62188 27920 ft 409 kts 295°
2026-04-24 05:53 13.90347 122.59550 27920 ft 409 kts 295°
2026-04-24 05:53 13.91599 122.56909 27920 ft 409 kts 295°
2026-04-24 05:53 13.92852 122.54266 27920 ft 409 kts 295°
2026-04-24 05:54 13.94098 122.51636 27920 ft 409 kts 295°
2026-04-24 05:54 13.95347 122.48998 27920 ft 409 kts 295°
2026-04-24 05:54 13.96591 122.46371 27920 ft 409 kts 295°
2026-04-24 05:54 13.97849 122.43713 27920 ft 409 kts 295°
2026-04-24 05:55 13.99081 122.41108 27920 ft 409 kts 295°
2026-04-24 05:55 14.00346 122.38433 27920 ft 409 kts 295°
2026-04-24 05:55 14.01579 122.35826 27920 ft 409 kts 295°
2026-04-24 05:55 14.02820 122.33200 27920 ft 409 kts 294°
2026-04-24 05:56 14.04072 122.30551 27920 ft 409 kts 294°
2026-04-24 05:56 14.05302 122.27947 27920 ft 409 kts 294°
2026-04-24 05:56 14.06550 122.25302 27920 ft 409 kts 294°
2026-04-24 05:56 14.07780 122.22697 27920 ft 409 kts 294°
2026-04-24 05:57 14.09031 122.20047 27920 ft 409 kts 294°
2026-04-24 05:57 14.10212 122.17542 27920 ft 409 kts 294°
2026-04-24 05:57 14.11449 122.14919 27790 ft 410 kts 294°
2026-04-24 05:57 14.12750 122.12157 27013 ft 415 kts 294°
2026-04-24 05:58 14.14009 122.09484 26234 ft 418 kts 294°
2026-04-24 05:58 14.15282 122.06780 25443 ft 420 kts 294°
2026-04-24 05:58 14.16500 122.04192 24718 ft 420 kts 294°
2026-04-24 05:58 14.17807 122.01413 24097 ft 416 kts 294°
2026-04-24 05:59 14.18965 121.98952 23697 ft 409 kts 294°
2026-04-24 05:59 14.20162 121.96407 23283 ft 401 kts 294°
2026-04-24 05:59 14.21311 121.93787 22865 ft 393 kts 288°
2026-04-24 05:59 14.22022 121.91134 22451 ft 384 kts 278°
2026-04-24 06:00 14.22317 121.88396 22008 ft 377 kts 272°
2026-04-24 06:00 14.22464 121.85741 21587 ft 371 kts 271°
2026-04-24 06:00 14.22592 121.83075 21166 ft 365 kts 271°
2026-04-24 06:00 14.22719 121.80489 20760 ft 360 kts 272°
2026-04-24 06:01 14.22848 121.77951 20364 ft 354 kts 272°
2026-04-24 06:01 14.22979 121.75425 19972 ft 349 kts 272°
2026-04-24 06:01 14.23110 121.72948 19589 ft 344 kts 272°
2026-04-24 06:01 14.23240 121.70511 19213 ft 338 kts 272°
2026-04-24 06:02 14.23369 121.68106 18845 ft 333 kts 272°
2026-04-24 06:02 14.23497 121.65734 18483 ft 328 kts 272°
2026-04-24 06:02 14.23621 121.63418 18133 ft 323 kts 272°
2026-04-24 06:02 14.23745 121.61119 17780 ft 319 kts 272°
2026-04-24 06:03 14.23865 121.58871 17391 ft 316 kts 272°
2026-04-24 06:03 14.23988 121.56587 16968 ft 314 kts 273°
2026-04-24 06:03 14.24106 121.54369 16560 ft 312 kts 273°
2026-04-24 06:03 14.24226 121.52125 16149 ft 309 kts 273°
2026-04-24 06:04 14.24342 121.49947 15751 ft 307 kts 273°
2026-04-24 06:04 14.24461 121.47724 15343 ft 305 kts 273°
2026-04-24 06:04 14.24576 121.45568 14945 ft 303 kts 274°
2026-04-24 06:04 14.24691 121.43389 14544 ft 301 kts 274°
2026-04-24 06:05 14.24805 121.41241 14146 ft 299 kts 274°
2026-04-24 06:05 14.24918 121.39114 13745 ft 297 kts 274°
2026-04-24 06:05 14.25032 121.36958 13335 ft 295 kts 274°
2026-04-24 06:05 14.25143 121.34856 12931 ft 294 kts 274°
2026-04-24 06:06 14.25253 121.32766 12530 ft 292 kts 274°
2026-04-24 06:06 14.25261 121.32606 12495 ft 292 kts 274°
2026-04-24 06:06 14.25346 121.30985 12098 ft 294 kts 274°
2026-04-24 06:06 14.25357 121.30778 12051 ft 294 kts 274°
2026-04-24 06:07 14.25469 121.28653 11622 ft 292 kts 274°
2026-04-24 06:07 14.25579 121.26569 11254 ft 289 kts 274°
2026-04-24 06:07 14.25687 121.24530 10896 ft 285 kts 274°
2026-04-24 06:07 14.25794 121.22490 10538 ft 282 kts 274°
2026-04-24 06:08 14.25900 121.20454 10182 ft 279 kts 274°
2026-04-24 06:08 14.26005 121.18460 9839 ft 276 kts 274°
2026-04-24 06:08 14.26075 121.17105 9606 ft 274 kts 274°
2026-04-24 06:08 14.26127 121.16176 9443 ft 273 kts 273°
2026-04-24 06:09 14.26232 121.14233 9091 ft 271 kts 273°
2026-04-24 06:09 14.26333 121.12302 8732 ft 269 kts 272°
2026-04-24 06:09 14.26433 121.10381 8374 ft 268 kts 272°
2026-04-24 06:09 14.26531 121.08453 8018 ft 267 kts 272°
2026-04-24 06:10 14.26630 121.06550 7669 ft 266 kts 272°
2026-04-24 06:10 14.26728 121.04642 7309 ft 265 kts 271°
2026-04-24 06:10 14.26823 121.02728 6958 ft 264 kts 271°
2026-04-24 06:11 14.27012 120.98938 6275 ft 262 kts 271°
2026-04-24 06:11 14.27109 120.97042 5943 ft 261 kts 271°
2026-04-24 06:11 14.27203 120.95196 5680 ft 257 kts 271°
2026-04-24 06:11 14.27295 120.93391 5606 ft 244 kts 271°
2026-04-24 06:12 14.27388 120.91657 5507 ft 235 kts 271°
2026-04-24 06:12 14.27476 120.89998 5417 ft 231 kts 275°
2026-04-24 06:12 14.27997 120.88466 5282 ft 233 kts 307°
2026-04-24 06:12 14.29304 120.87382 4965 ft 241 kts 330°
2026-04-24 06:13 14.30782 120.86558 4658 ft 242 kts 332°
2026-04-24 06:13 14.32277 120.85751 4366 ft 240 kts 330°
2026-04-24 06:13 14.33703 120.84953 4085 ft 239 kts 330°
2026-04-24 06:13 14.35174 120.84113 3799 ft 238 kts 330°
2026-04-24 06:14 14.36607 120.83284 3565 ft 234 kts 329°
2026-04-24 06:14 14.38098 120.82617 3404 ft 235 kts 352°
2026-04-24 06:14 14.39669 120.82790 3309 ft 223 kts 26°
2026-04-24 06:14 14.40835 120.83776 3235 ft 214 kts 56°
2026-04-24 06:15 14.41602 120.85076 3179 ft 211 kts 64°
2026-04-24 06:15 14.42265 120.86398 3134 ft 200 kts 65°
2026-04-24 06:15 14.42913 120.87657 2843 ft 193 kts 63°
2026-04-24 06:15 14.43549 120.88827 2581 ft 181 kts 63°
2026-04-24 06:16 14.44170 120.89939 2308 ft 171 kts 63°
2026-04-24 06:16 14.44742 120.90955 2059 ft 161 kts 62°
2026-04-24 06:16 14.45291 120.91933 1838 ft 154 kts 63°
2026-04-24 06:16 14.45818 120.92879 1647 ft 149 kts 63°
2026-04-24 06:17 14.46341 120.93817 1440 ft 152 kts 63°
2026-04-24 06:17 14.46865 120.94762 1263 ft 155 kts 62°
2026-04-24 06:17 14.47401 120.95724 1083 ft 150 kts 63°
2026-04-24 06:17 14.47932 120.96674 859 ft 151 kts 63°
2026-04-24 06:18 14.48448 120.97604 662 ft 148 kts 63°
2026-04-24 06:18 14.48959 120.98524 455 ft 147 kts 63°
2026-04-24 06:18 14.49465 120.99438 270 ft 145 kts 61°
2026-04-24 06:18 14.49958 121.00329 91 ft 141 kts 62°
2026-04-24 06:19 14.50394 121.01119 84 ft 100 kts 59°
2026-04-24 06:19 14.50658 121.01588 84 ft 50 kts 58°
2026-04-24 06:19 14.50791 121.01738 84 ft 17 kts 38°
2026-04-24 06:19 14.50857 121.01788 84 ft 9 kts 21°
2026-04-24 06:20 14.50915 121.01763 84 ft 10 kts 316°
2026-04-24 06:20 14.50967 121.01710 84 ft 10 kts 314°
2026-04-24 06:20 14.51022 121.01653 84 ft 11 kts 314°
2026-04-24 06:20 14.51081 121.01591 84 ft 12 kts 315°
2026-04-24 06:21 14.51145 121.01525 84 ft 13 kts 315°
2026-04-24 06:21 14.51210 121.01458 84 ft 12 kts 315°
2026-04-24 06:21 14.51245 121.01426 84 ft 6 kts 332°
2026-04-24 06:21 14.51288 121.01435 84 ft 7 kts 47°
2026-04-24 06:22 14.51322 121.01479 84 ft 8 kts 51°
2026-04-24 06:22 14.51359 121.01524 84 ft 9 kts 45°
2026-04-24 06:22 14.51407 121.01574 84 ft 8 kts 43°
2026-04-24 06:22 14.51459 121.01585 84 ft 8 kts 330°
2026-04-24 06:23 14.51504 121.01540 84 ft 9 kts 314°
2026-04-24 06:23 14.51550 121.01492 84 ft 10 kts 315°
2026-04-24 06:23 14.51610 121.01430 84 ft 13 kts 315°
2026-04-24 06:23 14.51679 121.01360 84 ft 14 kts 315°
2026-04-24 06:24 14.51751 121.01285 84 ft 14 kts 314°
2026-04-24 06:24 14.51825 121.01208 84 ft 15 kts 315°
2026-04-24 06:24 14.51900 121.01130 84 ft 15 kts 315°
2026-04-24 06:24 14.51974 121.01054 84 ft 14 kts 315°
2026-04-24 06:25 14.52044 121.00982 84 ft 13 kts 314°
2026-04-24 06:25 14.52109 121.00914 84 ft 13 kts 315°
2026-04-24 06:25 14.52148 121.00875 84 ft 3 kts 324°
2026-04-24 06:25 14.52171 121.00878 84 ft 4 kts 43°
2026-04-24 06:26 14.52191 121.00899 84 ft 3 kts 44°
2026-04-24 06:26 14.52209 121.00917 84 ft 3 kts 44°
2026-04-24 06:26 14.52229 121.00937 84 ft 3 kts 44°
2026-04-24 06:26 14.52241 121.00950 84 ft 0 kts 44°
2026-04-24 06:27 14.52243 121.00951 84 ft 0 kts 45°